Location: Wildcat Hills Observatory
(41.6350°N, 103.6812°W)
Time: 15:25:26
(UTC-06:00)

Cosmos 2151 - Pass Details

Date: 23 June 2018
Orbit: 581 x 603 km, 82.5° (Epoch: 14 July)

Event Time Altitude Azimuth Distance (km) Brightness Sun altitude
Exits shadow 23:55:06 76° 83° (E) 615 2.9 -23.4°
Drops below altitude 10° 23:59:16 10° 11° (N) 1,926 6.5 -23.6°
Sets 00:01:29 0° 10° (N) 2,828 7.5 -23.7°
